Location: Hermaringen
(48.5952°N, 10.2585°E)
Time: 05:48:19
(UTC+00:00)

Transit 2A - Pass Details

Date: 20 February 2026
Orbit: 590 x 954 km, 66.7° (Epoch: 14 March)

Event Time Altitude Azimuth Distance (km) Brightness Sun altitude
Rises 17:14:51 0° 320° (NW) 3,628 9.9 -5.1°
Reaches altitude 10° 17:18:18 10° 338° (NNW) 2,656 9.0 -5.7°
Maximum altitude 17:22:36 19° 22° (NNE) 2,029 7.9 -6.4°
Drops below altitude 10° 17:26:44 10° 66° (ENE) 2,531 8.1 -7.1°
Enters shadow 17:27:23 - 71° (ENE) 2,687 8.2 -7.2°
